TimeCET,TemperatureF,Dew PointF,Humidity,Sea Level PressureIn,VisibilityMPH,Wind Direction,Wind SpeedMPH,Gust SpeedMPH,PrecipitationIn,Events,Conditions,WindDirDegrees,DateUTC
12:15 AM,21.2,19.4,93,29.92,2.5,SE,2.2,-,N/A,,Partly Cloudy,140,2013-03-27 23:15:00
12:45 AM,19.4,17.6,93,29.92,2.5,SSE,4.5,-,N/A,,Partly Cloudy,150,2013-03-27 23:45:00
1:15 AM,19.4,17.6,93,29.92,2.5,SE,4.5,-,N/A,,Partly Cloudy,130,2013-03-28 00:15:00
1:45 AM,21.2,19.4,93,29.92,2.5,SE,2.2,-,N/A,,Scattered Clouds,140,2013-03-28 00:45:00
2:15 AM,23.0,21.2,93,29.92,2.5,SE,2.2,-,N/A,,Mostly Cloudy,140,2013-03-28 01:15:00
2:45 AM,24.8,21.2,86,29.92,2.5,SE,4.5,-,N/A,,Mostly Cloudy,140,2013-03-28 01:45:00
3:15 AM,23.0,21.2,93,29.92,2.5,ESE,2.2,-,N/A,,Scattered Clouds,120,2013-03-28 02:15:00
3:45 AM,21.2,19.4,93,29.92,2.5,SE,4.5,-,N/A,,Partly Cloudy,140,2013-03-28 02:45:00
4:15 AM,21.2,17.6,86,29.92,2.5,SE,4.5,-,N/A,,Partly Cloudy,130,2013-03-28 03:15:00
4:45 AM,23.0,19.4,86,29.92,2.5,SE,2.2,-,N/A,,Partly Cloudy,130,2013-03-28 03:45:00
5:15 AM,21.2,19.4,93,29.95,2.5,SE,4.5,-,N/A,,Partly Cloudy,130,2013-03-28 04:15:00
5:32 AM,21.2,19.4,93,29.95,3.1,SE,6.7,-,N/A,,Partly Cloudy,140,2013-03-28 04:32:00
5:45 AM,-9999,-9999,N/A,-9999,5.0,SE,4.5,-,N/A,,Mostly Cloudy,140,2013-03-28 04:45:00
6:00 AM,-9999,-9999,N/A,-9999,5.0,SE,4.5,-,N/A,,Scattered Clouds,140,2013-03-28 05:00:00
6:15 AM,26.6,23.0,86,29.95,5.0,SE,8.9,-,N/A,,Scattered Clouds,140,2013-03-28 05:15:00
6:45 AM,28.4,23.0,80,29.95,5.0,SE,8.9,-,N/A,,Scattered Clouds,140,2013-03-28 05:45:00
7:15 AM,30.2,24.8,80,29.95,6.2,SE,6.7,-,N/A,,Mostly Cloudy,140,2013-03-28 06:15:00
7:45 AM,32.0,24.8,75,29.98,6.2,SE,6.7,-,N/A,,Mostly Cloudy,140,2013-03-28 06:45:00
8:15 AM,32.0,24.8,75,29.98,6.2,SE,6.7,-,N/A,,Mostly Cloudy,140,2013-03-28 07:15:00
8:45 AM,-9999,-9999,N/A,-9999,6.2,SSE,8.9,-,N/A,,Scattered Clouds,150,2013-03-28 07:45:00
9:15 AM,33.8,24.8,70,29.98,6.2,SSE,6.7,-,N/A,,Mostly Cloudy,150,2013-03-28 08:15:00
9:45 AM,33.8,24.8,70,29.98,6.2,SSE,11.2,-,N/A,,Mostly Cloudy,160,2013-03-28 08:45:00
10:15 AM,33.8,24.8,70,29.98,6.2,SSE,13.4,-,N/A,,Mostly Cloudy,160,2013-03-28 09:15:00
10:45 AM,35.6,26.6,70,29.95,6.2,SSE,13.4,-,N/A,,Mostly Cloudy,160,2013-03-28 09:45:00
11:15 AM,35.6,26.6,70,29.95,6.2,SSE,15.7,-,N/A,,Mostly Cloudy,160,2013-03-28 10:15:00
11:45 AM,-9999,-9999,N/A,-9999,6.2,SSE,11.2,-,N/A,,Scattered Clouds,150,2013-03-28 10:45:00
12:15 PM,37.4,26.6,65,29.95,6.2,SSE,11.2,-,N/A,,Mostly Cloudy,150,2013-03-28 11:15:00
12:45 PM,37.4,26.6,65,29.95,6.2,SSE,11.2,-,N/A,,Mostly Cloudy,160,2013-03-28 11:45:00
1:15 PM,39.2,28.4,65,29.95,6.2,SE,13.4,-,N/A,,Mostly Cloudy,140,2013-03-28 12:15:00
1:45 PM,39.2,26.6,61,29.95,6.2,SSE,11.2,-,N/A,,Scattered Clouds,150,2013-03-28 12:45:00
2:15 PM,39.2,28.4,65,29.95,-9999.0,SSE,11.2,-,N/A,,Clear,150,2013-03-28 13:15:00
2:45 PM,-9999,-9999,N/A,-9999,3.1,SSE,11.2,-,N/A,Rain,Rain,150,2013-03-28 13:45:00
3:15 PM,39.2,28.4,65,29.92,-9999.0,SSE,13.4,-,N/A,,Clear,150,2013-03-28 14:15:00
3:45 PM,39.2,28.4,65,29.92,-9999.0,SSE,15.7,-,N/A,,Clear,150,2013-03-28 14:45:00
4:15 PM,39.2,28.4,65,29.92,-9999.0,SE,8.9,-,N/A,,Clear,130,2013-03-28 15:15:00
4:45 PM,37.4,28.4,70,29.92,-9999.0,SSE,11.2,-,N/A,,Clear,150,2013-03-28 15:45:00
5:15 PM,37.4,26.6,65,29.92,-9999.0,SE,11.2,-,N/A,,Clear,130,2013-03-28 16:15:00
5:45 PM,-9999,-9999,N/A,-9999,5.0,SSE,11.2,-,N/A,Rain,Light Rain,150,2013-03-28 16:45:00
6:15 PM,35.6,26.6,70,29.92,-9999.0,ESE,11.2,-,N/A,,Clear,120,2013-03-28 17:15:00
6:45 PM,35.6,26.6,70,29.92,-9999.0,SE,11.2,-,N/A,,Clear,140,2013-03-28 17:45:00
7:15 PM,35.6,28.4,75,29.92,-9999.0,ESE,11.2,-,N/A,,Clear,120,2013-03-28 18:15:00
7:45 PM,35.6,28.4,75,29.92,-9999.0,ESE,11.2,-,N/A,,Clear,110,2013-03-28 18:45:00
8:15 PM,35.6,28.4,75,29.92,-9999.0,ESE,11.2,-,N/A,,Clear,110,2013-03-28 19:15:00
8:45 PM,-9999,-9999,N/A,-9999,5.0,SE,11.2,-,N/A,Rain,Light Rain,130,2013-03-28 19:45:00
9:15 PM,35.6,30.2,81,29.92,-9999.0,SE,11.2,-,N/A,,Clear,130,2013-03-28 20:15:00
9:45 PM,35.6,30.2,81,29.89,-9999.0,ESE,13.4,-,N/A,,Clear,120,2013-03-28 20:45:00
10:15 PM,37.4,30.2,75,29.89,6.2,SE,8.9,-,N/A,,Mostly Cloudy,130,2013-03-28 21:15:00
10:45 PM,37.4,32.0,81,29.89,6.2,SE,6.7,-,N/A,,Mostly Cloudy,140,2013-03-28 21:45:00
11:15 PM,37.4,33.8,87,29.89,6.2,SE,11.2,-,N/A,,Mostly Cloudy,140,2013-03-28 22:15:00
11:45 PM,-9999,-9999,N/A,-9999,1.8,North,-9999.0,-,N/A,Rain,Light Rain,0,2013-03-28 22:45:00
11:50 PM,37.4,33.8,87,29.86,5.0,SE,15.7,-,N/A,Rain,Light Rain,140,2013-03-28 22:50:00